EW9744 Weather Reports


time (UTC)temp
F
wind
direction
speed
knots
gust
knots
rain 1hr
in
rain 24hr
in
rain mn
in
humidity
%
barometer
mb
20260508140031 51 302 9.6 18.2 0.00 0.00 0.00 66 1019.2
20260508134530 52 300 8.7 18.2 0.00 0.00 0.00 66 1019.0
20260508133030 52 308 7.0 16.5 0.00 0.00 0.00 65 1019.0
20260508131526 53 288 5.2 12.2 0.00 0.00 0.00 64 1018.8
20260508130033 53 271 2.6 7.8 0.00 0.00 0.00 64 1018.8
20260508123034 52 282 5.2 11.3 0.00 0.00 0.00 64 1018.7
20260508121528 53 283 4.3 8.7 0.00 0.00 0.00 62 1018.6
20260508120033 53 282 4.3 9.6 0.00 0.00 0.00 61 1018.5
20260508114532 53 293 3.5 7.8 0.00 0.00 0.00 60 1018.5
20260508110104 51 274 0.9 6.1 0.00 0.00 0.00 64 1018.2
20260508104530 50 283 0.9 5.2 0.00 0.00 0.00 65 1018.3
20260508103107 50 292 0.9 5.2 0.00 0.00 0.00 65 1018.2
20260508101542 50 291 1.7 4.3 0.00 0.00 0.00 65 1018.3
20260508100031 50 263 1.7 4.3 0.00 0.00 0.00 65 1018.3
20260508094533 49 288 3.5 5.2 0.00 0.00 0.00 67 1018.2
20260508093031 50 285 2.6 6.1 0.00 0.00 0.00 67 1018.1
20260508091530 50 288 3.5 6.1 0.00 0.00 0.00 66 1018.1
20260508090032 50 298 2.6 6.1 0.00 0.00 0.00 66 1018.2
20260508084605 50 300 3.5 5.2 0.00 0.00 0.00 66 1018.2
20260508083146 50 289 3.5 6.1 0.00 0.00 0.00 65 1018.1
20260508081530 50 291 3.5 6.1 0.00 0.00 0.00 63 1018.2
20260508080031 51 303 3.5 6.1 0.00 0.00 0.00 61 1018.2
20260508074531 52 303 2.6 4.3 0.00 0.00 0.00 58 1018.3
20260508071532 53 279 2.6 7.0 0.00 0.00 0.00 56 1018.3
20260508070036 52 254 3.5 6.1 0.00 0.00 0.00 58 1018.3
20260508064532 53 279 3.5 6.1 0.00 0.00 0.00 56 1018.3
20260508063031 53 271 4.3 7.0 0.00 0.00 0.00 55 1018.4
20260508061531 53 264 4.3 8.7 0.00 0.00 0.00 54 1018.3
20260508060105 53 275 3.5 6.1 0.00 0.00 0.00 52 1018.4
20260508054648 53 257 3.5 7.0 0.00 0.00 0.00 51 1018.4
20260508053030 54 255 2.6 5.2 0.00 0.00 0.00 49 1018.5
20260508041607 53 254 2.6 5.2 0.00 0.00 0.00 42 1018.3
20260508034532 54 289 4.3 7.0 0.00 0.00 0.00 39 1018.0
20260508031644 56 304 5.2 6.1 0.00 0.00 0.00 35 1017.8
20260508024529 59 320 4.3 7.0 0.00 0.00 0.00 28 1017.9
20260508023030 61 322 4.3 7.8 0.00 0.00 0.00 25 1017.8
20260508021529 62 329 5.2 9.6 0.00 0.00 0.00 23 1017.8
20260508020028 63 327 6.1 11.3 0.00 0.00 0.00 23 1017.8
20260508014530 65 327 5.2 10.4 0.00 0.00 0.00 23 1017.8
20260508013031 67 333 4.3 8.7 0.00 0.00 0.00 22 1017.8
20260508010031 66 336 6.1 13.0 0.00 0.00 0.00 21 1018.0
20260508003030 68 315 6.1 13.0 0.00 0.00 0.00 22 1017.8
20260508001529 69 312 7.8 18.2 0.00 0.00 0.00 21 1017.8
20260508000029 70 306 7.8 15.6 0.00 0.00 0.00 22 1017.6
20260507233031 71 323 6.1 13.9 0.00 0.00 0.00 26 1017.8
20260507231531 70 330 5.2 13.0 0.00 0.00 0.00 28 1018.0
20260507230030 69 333 7.0 14.8 0.00 0.00 0.00 28 1018.0
20260507224529 68 332 7.8 17.4 0.00 0.00 0.00 28 1018.1
20260507220105 71 312 7.0 15.6 0.00 0.00 0.00 31 1018.4
20260507214530 70 312 7.0 14.8 0.00 0.00 0.00 33 1018.5
20260507213030 69 325 6.1 15.6 0.00 0.00 0.00 36 1018.7
20260507211545 70 322 8.7 16.5 0.00 0.00 0.00 35 1018.7
20260507210030 70 301 6.1 14.8 0.00 0.00 0.00 37 1018.9
20260507204645 69 321 7.8 16.5 0.00 0.00 0.00 38 1019.0
20260507203031 68 317 7.8 14.8 0.00 0.00 0.00 39 1019.0
20260507201532 66 320 8.7 18.2 0.00 0.00 0.00 41 1019.2
20260507194604 65 342 9.6 15.6 0.00 0.00 0.00 44 1019.3
20260507193031 65 342 8.7 17.4 0.00 0.00 0.00 44 1019.5
20260507184533 63 23 3.5 8.7 0.00 0.00 0.00 44 1019.8
20260507183041 63 323 4.3 10.4 0.00 0.00 0.00 44 1019.9
20260507181532 64 82 3.5 8.7 0.00 0.00 0.00 48 1020.0
20260507180028 64 98 2.6 6.1 0.00 0.00 0.00 47 1020.0
20260507174531 62 78 2.6 7.8 0.00 0.00 0.00 43 1020.1
20260507171533 59 275 5.2 13.9 0.00 0.00 0.00 47 1020.4
20260507170028 58 269 4.3 12.2 0.00 0.00 0.00 51 1020.4
20260507164531 57 287 6.1 15.6 0.00 0.00 0.00 56 1020.4
20260507161532 55 300 7.0 14.8 0.00 0.00 0.00 63 1020.4
20260507160108 56 309 5.2 14.8 0.00 0.00 0.00 63 1020.6
20260507154530 55 290 4.3 11.3 0.00 0.00 0.00 64 1020.6
20260507153032 54 276 5.2 10.4 0.00 0.00 0.00 66 1020.6
20260507151530 53 267 5.2 12.2 0.00 0.00 0.00 67 1020.8
20260507150106 52 279 6.1 12.2 0.00 0.00 0.00 70 1020.8
20260507144532 50 289 7.0 13.0 0.00 0.00 0.00 73 1020.6
20260507143031 50 301 6.1 13.0 0.00 0.00 0.00 75 1020.7
20260507141606 50 288 6.1 11.3 0.00 0.00 0.00 74 1020.6